Regional Weather Roundup
Issued by NWS Newport/Morehead, NC

Current Version | Previous Version | Graphics & Text | Print | Product List | Glossary Off
Versions: 1 2 3 4 5 6 7 8 9 10 11 12 13 14 15 16 17 18 19 20 21 22 23 24 25 26 27 28 29 30 31 32 33 34 35 36 37 38 39 40 41 42 43 44 45 46 47 48 49 50
000 ASUS42 KMHX 230610 RWRMHX WEATHER ROUNDUP FOR EASTERN NORTH CAROLINA NATIONAL WEATHER SERVICE NEWPORT/MOREHEAD CITY NC 200 AM EDT TUE SEP 23 2014 NOTE: "FAIR" INDICATES FEW OR NO CLOUDS BELOW 12,000 FEET WITH NO SIGNIFICANT WEATHER AND/OR OBSTRUCTIONS TO VISIBILITY NCZ015>017-031-032-045>047-102-103-230700- NORTH COAST CITY SKY/WX TMP DP RH WIND PRES REMARKS EDENTON CLOUDY 64 58 81 CALM 30.17R ELIZABETH CITY CLOUDY 66 57 72 NE10 30.16S KITTY HAWK CLOUDY 70 56 60 NE8 30.14S MANTEO CLOUDY 69 56 64 NE12G17 30.15S $$ NCZ045>047-081-094-103-104-230700- CENTRAL COAST CITY SKY/WX TMP DP RH WIND PRES REMARKS FRISCO MOCLDY 69 60 73 NE9G16 30.13R SWANQUARTER N/A 66 N/A N/A NE2 30.12R $$ NCZ095-097-098-100-101-230700- SOUTHERN COAST CITY SKY/WX TMP DP RH WIND PRES REMARKS BEAUFORT MOCLDY 70 63 78 NE7 30.12R CEDAR ISLAND N/A 73 N/A N/A NE14G22 30.18R JACKSONVILLE CLOUDY 67 61 81 N3 30.12R NEWPORT NOT AVBL PINEY ISLAND MOCLDY 74 61 63 NE14 30.13R WILMINGTON CLOUDY 66 64 93 N5 30.11S $$ NCZ011>013-027>030-043-044-078>080-089-090>093-098-230700- COASTAL PLAIN CITY SKY/WX TMP DP RH WIND PRES REMARKS AHOSKIE CLOUDY 61 56 84 N3 30.19R CLINTON CLOUDY 67 60 76 CALM 30.16R ELIZABETHTOWN CLOUDY 66 59 77 NW3 30.14R GOLDSBORO CLOUDY 66 63 88 CALM 30.14R GREENVILLE CLOUDY 64 59 82 NE3 30.17R HAVELOCK MOCLDY 69 63 81 NE7 30.14R KENANSVILLE CLOUDY 64 57 77 CALM 30.15R KINSTON CLOUDY 65 59 79 N5 30.16R NEW BERN CLOUDY 69 62 78 NE7 30.15R RICHLANDS CLOUDY 64 57 77 NE7 30.13S ROANOKE RAPIDS NOT AVBL ROCKY MOUNT CLOUDY 64 58 80 N8 30.16R WASHINGTON CLOUDY 63 59 87 CALM 30.16R WHITEVILLE CLOUDY 64 61 88 CALM 30.13S $$ AMZ130-135-150-152-154-156-158-170-250-252-270-ANZ085-086-088-633-658-670-230700- MARINE OBSERVATIONS STATION/POSITION TIME TEMP WIND PRES WAVE SWELL AIR SEA DIR/SP/G HT/PER HT/PER (UTC) (F) (DEG/KT/KT) (MB) (FT/S) (FT/S) CHESAPEAKE LIGHT 0500 69 30/ 19/ 21 1022.0 BUOY 44014 0600 71 76 10/ 17/ 19 1020.7 4/ 8 2/ 8 DUCK 0600 71 74 20/ 18/ 20 1020.2 2E DUCK 0600 N/A 3/ 4 OREGON INLET 0600 70 76 30/ 14/ 19 1020.7 BUOY 44095 0600 74 N/A 4/ 8 20E OREGON INLET NOT AVBL HATTERAS CG NOT AVBL DIAMOND BUOY 0600 73 20/ 17/ 21 1019.7 4/ 6 2/10 CAPE LOOKOUT 0500 74 40/ 14/ 15 1019.5 BEAUFORT LAB 0600 71 76 40/ 4/ 7 1019.3 30 SE NEW RIVER 0500 76 82 50/ 16/ 17 1018.5 5 SE WRIGHTSVILL 0500 72 79 30/ 12/ 12 N/A BUOY 41002 0515 79 81 120/ 4/ 4 1018.8 3/ 8 3/ 8 BUOY 41004 0600 78 82 50/ 14/ 16 1016.6 3/ 7 2/ 7 $$

USA.gov is the U.S. government's official web portal to all federal, state and local government web resources and services.